Regional Weather Roundup
Issued by NWS Huntsville, AL

Home | Current Version | Previous Version | Text Only | Print | Product List | Glossary On
Versions: 1 2 3 4 5 6 7 8 9 10 11 12 13 14 15 16 17 18 19 20 21 22 23 24 25 26 27 28 29 30 31 32 33 34 35 36 37 38 39 40 41 42 43 44 45 46 47 48 49 50
000
ASUS44 KHUN 210610
RWRHUN

WEATHER ROUNDUP FOR THE TENNESSEE VALLEY
NATIONAL WEATHER SERVICE HUNTSVILLE AL
1200 AM CST SUN DEC 21 2014

ALZ001>004-210700-
NORTHWEST ALABAMA

CITY           SKY/WX    TMP DP  RH WIND       PRES   REMARKS
COURTLAND HCN    N/A     30 N/A N/A CALM        N/A
RUSSELLVILLE     N/A     28 N/A N/A MISG        N/A
SHOALS AIRPORT CLEAR     38  28  67 NE3       30.25S
6HR MIN TEMP:  37; 6HR MAX TEMP:  47;

SHOALS TVA RES   N/A     39 N/A N/A MISG        N/A
$$

ALZ005>007-016-210700-
NORTH CENTRAL ALABAMA

CITY           SKY/WX    TMP DP  RH WIND       PRES   REMARKS
CULLMAN AG STN   N/A     32 N/A N/A NE3         N/A
DECATUR AP     CLEAR     35  28  75 N7        30.24S WCI  29
6HR MIN TEMP:  35; 6HR MAX TEMP:  45;

HUNTSVILLE AP  CLEAR     37  28  70 N7        30.22F WCI  32
6HR MIN TEMP:  37; 6HR MAX TEMP:  47;

HUN NWS/UAH      N/A     38  27  63 NE3         N/A
MERIDIANVILLE  CLEAR     32  27  80 N5        30.23F WCI  27
REDSTONE ARSN  CLEAR     34  28  80 N7        30.22F WCI  28
VINEMONT AP    FAIR      31  29  93 CALM      30.23S
$$

ALZ008>010-210700-
NORTHEAST ALABAMA

CITY           SKY/WX    TMP DP  RH WIND       PRES   REMARKS
ALBERTVILLE    CLEAR     34  34 100 NE6       30.19S WCI  29
FORT PAYNE     CLEAR     30  28  93 CALM      30.21F FOG
SCOTTSBORO AP  PTCLDY    32  30  93 CALM      30.23F
VALLEY HEAD      N/A     28 N/A N/A MISG        N/A
$$

TNZ076-096-097-210700-
SOUTHEASTERN MIDDLE TENNESSEE

CITY           SKY/WX    TMP DP  RH WIND       PRES   REMARKS
TULLAHOMA      CLEAR     27  23  86 CALM      30.23F
WINCHESTER     CLEAR     27  27 100 CALM      30.23F
$$

...SURROUNDING SITES...

CITY           SKY/WX    TMP DP  RH WIND       PRES   REMARKS
ATLANTA        CLOUDY    48  44  86 E7        30.19F
ANNISTON       CLOUDY    45  42  89 NE5       30.20S
BIRMINGHAM     CLEAR     37  34  89 CALM      30.22S
CHATTANOOGA    CLOUDY    34  31  88 CALM      30.24S
CORINTH        FAIR      32  28  86 CALM      30.23F
DALTON         CLOUDY    37  37 100 CALM      30.22S
GADSDEN        CLEAR     34  30  86 CALM      30.21F
GOLDEN TRNGL   CLEAR     36  32  87 CALM      30.21S
HALEYVILLE     FAIR      31  29  92 CALM      30.24S
JACKSON TN     CLEAR     33  28  81 CALM      30.25F
LEWISBURG      FAIR      25  22  88 CALM      30.25F
MEMPHIS        CLEAR     37  30  75 E3        30.24F
MURFREESBORO   FAIR      29  27  92 CALM      30.26S
NASHVILLE      CLEAR     30  27  88 CALM      30.27F
OXFORD MS      FAIR      32  30  93 E3        30.24F
ROME           CLOUDY    40  39  97 CALM      30.21S
SAVANNAH       CLEAR     28  27  93 CALM      30.24F
TUPELO         CLEAR     33  29  85 NE6       30.24S WCI  28
TUSCALOOSA     CLEAR     36  34  92 CALM      30.21S
$$

...GULF COAST WEATHER...

CITY           SKY/WX    TMP DP  RH WIND       PRES   REMARKS
GULFPORT       CLOUDY    51  46  83 NE6       30.15F
PASCAGOULA     CLOUDY    51  47  86 N7        30.15F
MOBILE         CLOUDY    49  47  93 N6        30.15F
GULF SHORES    CLOUDY    51  48  90 NE5       30.12F
DESTIN         CLOUDY    54  51  90 NE9       30.10F
APPALACHICOLA  CLOUDY    57  53  86 NE13      30.07F
$$



USA.gov is the U.S. government's official web portal to all federal, state and local government web resources and services.